"Pseudo-MPEC" for P10TUSm

Created 2019 Nov 9 9:07:15 UT using Find_Orb

Click here for an explanation of pseudo-MPECs

 
 Astrometry: 
     P10TUSm  C2019 11 023XAstrometryS\^HEq]E^pf=rpyT4w6r-ku;:9gMq@00C/[ZT?P@F51
     P10TUSm  C2019 11 027Rma,Gredacted;uJx1v+q=egD\.TFQclickc(1q!;l8n_y`O$^`F51
     P10TUSm  C2019 11 02j=qj4\2Xstgs%*!6#Qnoy-ohereSmxW+^1u!]@is,Hl5@+sAuuxCF51
     P10TUSm  C2019 11 02n*=3w;E]SV2/9,forx38Yiy#cux8Mexplanation%6A_@8Lr-qU;F51

Station data:
(F51) Pan-STARRS 1, Haleakala  (N20.707235 W156.255910)  US/Hawaii.
   Observers N. Primak, A. Schultz, S. Watters, J. Thiel, T. Goggia. Measurer
   PS1 Science Consortium. 1.8-m Ritchey-Chrétien + CCD.

Orbital elements:  P10TUSm
   Perihelion 2018 Nov 25.286180 +/- 334 TT =  6:52:06 (JD 2458447.786180)
Epoch 2019 Nov  3.0 TT = JDT 2458790.5   Earth MOID: 0.4749   Ma: 0.0334
M 134.33681919 +/- 110              (J2000 ecliptic)          AutoNEOCP
n   0.39197958 +/- 0.271            Peri.  179.41635 +/- 60
a   1.84910009 +/- 0.853            Node    85.93540 +/- 29
e   0.1937470 +/- 0.241             Incl.   18.59609 +/- 38
P   2.51/918.40d           H 19.4   G  0.15   U 11.9  SR
q 1.49084244 +/- 1.09    Q 2.20735773 +/- 36
From 4 observations 2019 Nov. 2 (50.9 min); mean residual 0".04
Residuals in arcseconds: 
191102 F51  .04-  .04-    191102 F51  .04-  .02+    
191102 F51  .08+  .05+    191102 F51  .00   .03-    

Ephemerides (geocentric):
Date (UTC) HH   RA              Dec         delta   r     elong  mag " sig PA
---- -- -- --  -------------   -----------  ------ ------ -----  --- ---- ---
2019 11 09 09  04 23 58.030   +04 21 06.84  1.1974 2.1369 155.1 22.2  29d 177
2019 11 09 10  04 23 54.747   +04 21 13.12  1.1973 2.1369 155.1 22.2  29d 177
2019 11 09 11  04 23 51.461   +04 21 19.41  1.1972 2.1370 155.1 22.2  29d 177
2019 11 09 12  04 23 48.172   +04 21 25.73  1.1971 2.1370 155.2 22.2  29d 177
2019 11 09 13  04 23 44.881   +04 21 32.06  1.1970 2.1371 155.2 22.2  29d 177
2019 11 09 14  04 23 41.588   +04 21 38.41  1.1969 2.1371 155.3 22.2  29d 177
2019 11 09 15  04 23 38.292   +04 21 44.78  1.1968 2.1372 155.3 22.2  29d 177
2019 11 09 16  04 23 34.993   +04 21 51.17  1.1967 2.1373 155.4 22.2  30d 177
2019 11 09 17  04 23 31.692   +04 21 57.57  1.1965 2.1373 155.4 22.2  30d 177
2019 11 09 18  04 23 28.388   +04 22 04.00  1.1964 2.1374 155.4 22.2  30d 177
2019 11 09 19  04 23 25.082   +04 22 10.44  1.1963 2.1374 155.5 22.2  30d 177
2019 11 09 20  04 23 21.774   +04 22 16.90  1.1962 2.1375 155.5 22.2  30d 177
2019 11 09 21  04 23 18.462   +04 22 23.38  1.1961 2.1375 155.6 22.2  30d 177
2019 11 09 22  04 23 15.149   +04 22 29.87  1.1960 2.1376 155.6 22.2  30d 177
2019 11 09 23  04 23 11.833   +04 22 36.39  1.1959 2.1376 155.7 22.2  30d 177
2019 11 10 00  04 23 08.514   +04 22 42.92  1.1958 2.1377 155.7 22.2  30d 177
2019 11 10 01  04 23 05.193   +04 22 49.47  1.1957 2.1377 155.7 22.1  30d 177
2019 11 10 02  04 23 01.869   +04 22 56.04  1.1956 2.1378 155.8 22.1  30d 177
2019 11 10 03  04 22 58.543   +04 23 02.63  1.1955 2.1378 155.8 22.1  30d 177
2019 11 10 04  04 22 55.215   +04 23 09.24  1.1954 2.1379 155.9 22.1  30d 177
2019 11 10 05  04 22 51.884   +04 23 15.87  1.1953 2.1379 155.9 22.1  30d 177
2019 11 10 06  04 22 48.551   +04 23 22.51  1.1951 2.1380 156.0 22.1  30d 177
2019 11 10 07  04 22 45.215   +04 23 29.17  1.1950 2.1380 156.0 22.1  30d 177
2019 11 10 08  04 22 41.876   +04 23 35.85  1.1949 2.1381 156.0 22.1  30d 177
2019 11 10 09  04 22 38.536   +04 23 42.55  1.1948 2.1381 156.1 22.1  30d 177
2019 11 10 10  04 22 35.193   +04 23 49.27  1.1947 2.1382 156.1 22.1  30d 177
2019 11 10 11  04 22 31.847   +04 23 56.00  1.1946 2.1382 156.2 22.1  30d 177
2019 11 10 12  04 22 28.499   +04 24 02.76  1.1945 2.1383 156.2 22.1  30d 177
2019 11 10 13  04 22 25.149   +04 24 09.53  1.1944 2.1383 156.2 22.1  30d 177
2019 11 10 14  04 22 21.796   +04 24 16.32  1.1943 2.1384 156.3 22.1  30d 177
2019 11 10 15  04 22 18.441   +04 24 23.13  1.1942 2.1385 156.3 22.1  30d 177
2019 11 10 16  04 22 15.084   +04 24 29.96  1.1941 2.1385 156.4 22.1  30d 177
2019 11 10 17  04 22 11.724   +04 24 36.80  1.1940 2.1386 156.4 22.1  30d 178
2019 11 10 18  04 22 08.362   +04 24 43.67  1.1939 2.1386 156.5 22.1  30d 178
2019 11 10 19  04 22 04.997   +04 24 50.55  1.1938 2.1387 156.5 22.1  31d 178
2019 11 10 20  04 22 01.630   +04 24 57.45  1.1937 2.1387 156.5 22.1  31d 178
2019 11 10 21  04 21 58.261   +04 25 04.37  1.1936 2.1388 156.6 22.1  31d 178
2019 11 10 22  04 21 54.889   +04 25 11.31  1.1935 2.1388 156.6 22.1  31d 178
2019 11 10 23  04 21 51.515   +04 25 18.27  1.1934 2.1389 156.7 22.1  31d 178
2019 11 11 00  04 21 48.139   +04 25 25.24  1.1933 2.1389 156.7 22.1  31d 178
2019 11 11 01  04 21 44.761   +04 25 32.24  1.1932 2.1390 156.7 22.1  32d 178
2019 11 11 02  04 21 41.380   +04 25 39.25  1.1931 2.1390 156.8 22.1  32d 178
2019 11 11 03  04 21 37.996   +04 25 46.28  1.1930 2.1391 156.8 22.1  32d 178
2019 11 11 04  04 21 34.611   +04 25 53.33  1.1930 2.1391 156.9 22.1  32d 178
2019 11 11 05  04 21 31.223   +04 26 00.40  1.1929 2.1392 156.9 22.1  32d 178
2019 11 11 06  04 21 27.833   +04 26 07.49  1.1928 2.1392 156.9 22.1  32d 178
2019 11 11 07  04 21 24.441   +04 26 14.59  1.1927 2.1393 157.0 22.1  33d 178
2019 11 11 08  04 21 21.046   +04 26 21.72  1.1926 2.1393 157.0 22.1  33d 178